[[{"header":{"parameterUnit":"m.s-1","parameterCategory":2,"la1":30.2991,"la2":30.254,"lo1":-89.0895,"lo2":-89.0444,"dy":0.0017,"dx":0.0017,"nx":28,"ny":28,"refTime":"2025-08-02T21:00:00:Z","depth":"0","parameterNumber":2,"parameterNumberName":"U-component_of_CURRENTS"},"data":[0,0,0,0,0,0,0,0,0,0,0,0,0,0,0,0,0,0,0,0,0,0,0,0,0,0,0,0,0,0,0,0,0,0,0,0,0,0,0,0,0,0,0,0,0,0,0,0,0,0,0,0,0,0,0,0,0,0,0.3657,0.3658,0,0.3733,0.3733,0.3734,0.3699,0.3697,0.3695,0.3693,0.3744,0.3747,0.375,0,0,0,0,0,0,0,0,0,0,0,0,0,0.3598,0.3598,0.3657,0.3658,0.3659,0.3732,0.3733,0.3735,0.3699,0.3697,0.3695,0.3692,0.3743,0.3747,0.3751,0,0,0,0,0,0,0,0,0,0,0,0,0,0.3643,0.3598,0.3657,0.365,0.365,0.3732,0.3733,0.3735,0.37,0.3697,0.3694,0.3691,0.3742,0.3746,0.3751,0.3839,0,0,0.3766,0.3768,0,0,0,0,0,0,0,0,0.3641,0.3646,0.365,0.365,0.3651,0.3703,0.3731,0.3768,0.3701,0.3681,0.3693,0.369,0.373,0.3736,0.3757,0.3842,0.3844,0.3766,0.3769,0.3771,0.3772,0,0,0,0,0,0,0,0.3637,0.3643,0.3687,0.3651,0.3652,0.3682,0.3684,0.3739,0.3721,0.3683,0.368,0.3689,0.3729,0.3753,0.3758,0.3845,0.3766,0.377,0.3773,0.3775,0.3983,0.3986,0,0,0,0,0,0,0.3625,0.364,0.3685,0.369,0.3638,0.3685,0.3688,0.369,0.3721,0.3723,0.3691,0.3687,0.3746,0.3753,0.376,0.3827,0.3771,0.3775,0.3778,0.398,0.3984,0.3987,0,0,0,0,0,0,0.3623,0.3628,0.3682,0.3666,0.3675,0.3688,0.3691,0.3693,0.3707,0.3728,0.3728,0.3702,0.3744,0.3753,0.3811,0.383,0.3778,0.3782,0.3977,0.3981,0.3985,0.3987,0,0,0,0,0,0,0.3621,0.3627,0.3639,0.3665,0.3675,0.3734,0.3694,0.3696,0.3717,0.3712,0.3739,0.374,0.3742,0.3804,0.3816,0.3835,0.3786,0.3974,0.3979,0.3984,0.3984,0.3991,0.3997,0,0,0,0,0,0.3618,0.366,0.3639,0.3645,0.3686,0.3736,0.3745,0.3745,0.372,0.3743,0.3758,0.3739,0.3844,0.3811,0.3824,0.3845,0.3971,0.3978,0.3983,0.3981,0.3989,0.3997,0,0,0,0,0,0,0.3657,0.3661,0.3638,0.368,0.37,0.3729,0.3763,0.3754,0.3788,0.3778,0.3782,0.3788,0.3846,0.3863,0.3826,0.3925,0.3903,0.3912,0.3897,0.3905,0.3911,0.3879,0.379,0,0,0,0,0,0.3666,0.3681,0.3693,0.3725,0.3736,0.3746,0.3769,0.3764,0.3791,0.38,0.3816,0.3845,0.3889,0.3906,0.3951,0.4013,0.4027,0.4037,0.4043,0.4048,0.4035,0.4117,0.4128,0.4006,0.4006,0.4006,0,0,0.3687,0.3694,0.3701,0.3732,0.3746,0.3766,0.3753,0.379,0.38,0.3806,0.3839,0.3876,0.3916,0.3974,0.4001,0.3982,0.4088,0.4056,0.4059,0.4043,0.4124,0.4135,0.4145,0.401,0.401,0.4009,0,0,0.3731,0.3743,0.3759,0.3774,0.3794,0.3804,0.3811,0.3836,0.3841,0.3886,0.3892,0.3939,0.4002,0.4029,0.4051,0.4132,0.4127,0.4151,0.4146,0.4226,0.4236,0.4244,0.4254,0.4263,0.4144,0.4144,0.4144,0,0.3746,0.3765,0.3779,0.3796,0.3806,0.3814,0.3828,0.3853,0.389,0.3898,0.3892,0.3986,0.4023,0.4084,0.4107,0.4141,0.4166,0.4103,0.4231,0.424,0.4249,0.4257,0.4267,0.4145,0.4145,0.4145,0.4145,0,0.3786,0.3801,0.3824,0.3824,0.3847,0.3875,0.3887,0.3909,0.3911,0.3919,0.3977,0.4035,0.4076,0.4111,0.413,0.4213,0.4202,0.4233,0.4198,0.426,0.4265,0.4276,0.4146,0.4146,0.4146,0.4146,0,0,0.3794,0.3835,0.3834,0.383,0.3858,0.3874,0.3903,0.3924,0.392,0.3968,0.3978,0.4072,0.4085,0.4115,0.4157,0.4224,0.4308,0.425,0.4254,0.4234,0.4441,0.4236,0.4227,0.4368,0.4371,0.4373,0.4409,0,0.3804,0.3832,0.3852,0.3867,0.388,0.3892,0.391,0.3927,0.3943,0.3962,0.4018,0.4054,0.4093,0.4112,0.4192,0.4279,0.4341,0.4292,0.4405,0.4406,0.4197,0.4235,0.398,0.3975,0.4419,0.4421,0.4422,0,0.3815,0.3832,0.3851,0.3865,0.3868,0.3874,0.3879,0.3897,0.3929,0.3943,0.3984,0.4018,0.4102,0.414,0.4298,0.4266,0.4354,0.4421,0.4425,0.4235,0.4221,0.3994,0.3977,0.383,0.4439,0.4437,0.4436,0,0.3795,0.3823,0.3833,0.3839,0.3863,0.386,0.3864,0.3884,0.3882,0.3924,0.3918,0.4019,0.4045,0.4195,0.4293,0.4321,0.4449,0.4509,0.4402,0.4387,0.4187,0.4148,0.4014,0.4643,0.4643,0.4643,0.4643,0,0.3795,0.3796,0.3817,0.382,0.3812,0.383,0.3816,0.3835,0.3844,0.3829,0.39,0.3896,0.4069,0.4139,0.4279,0.4319,0.4438,0.4383,0.4387,0.4176,0.4138,0.4014,0.4005,0.4644,0.4644,0.4644,0.4643,0,0.3768,0.3791,0.38,0.3812,0.3806,0.3795,0.3774,0.3751,0.3773,0.3755,0.3763,0.381,0.3866,0.3995,0.4191,0.4239,0.4198,0.4347,0.4032,0.3995,0.3721,0.3722,0.3519,0.3462,0.4229,0.4224,0.422,0,0.3758,0.3757,0.3776,0.3755,0.3754,0.3733,0.3701,0.372,0.3693,0.3688,0.3669,0.3685,0.3669,0.3793,0.3865,0.3984,0.3987,0.3835,0.3846,0.3631,0.3643,0.357,0.3536,0.3593,0.3585,0.3577,0.3572,0,0.373,0.3738,0.3743,0.3698,0.3666,0.3619,0.3581,0.3557,0.356,0.3528,0.3466,0.3444,0.3461,0.3385,0.347,0.3557,0.357,0.3684,0.3583,0.3203,0.3002,0.297,0.3612,0.3507,0.3513,0.3518,0.3522,0.3524,0.3709,0.3685,0.3678,0.3604,0.3571,0.3479,0.338,0.335,0.3279,0.3163,0.3255,0.312,0.303,0.3059,0.3113,0.2932,0.311,0.2888,0.2932,0.2894,0.2739,0.3173,0.2996,0.2999,0.3002,0.3005,0.3007,0,0.365,0.3608,0.3558,0.3471,0.3359,0.3367,0.3257,0.3117,0.2974,0.2935,0.2852,0.2625,0.2475,0.2437,0.2278,0.2208,0.2222,0.2164,0.2042,0.2081,0.2551,0.2418,0.1957,0.1957,0.1957,0.1957,0.1958,0.1958,0.3634,0.3551,0.3482,0.3267,0.3175,0.2957,0.285,0.2697,0.261,0.2346,0.2165,0.2134,0.2002,0.1774,0.1604,0.1611,0.1592,0.1433,0.1598,0.1934,0.2007,0.2076,0.1945,0.1392,0.1391,0.0995,0.0991,0.0989]},{"header":{"parameterUnit":"m.s-1","parameterCategory":2,"la1":30.2991,"la2":30.254,"lo1":-89.0895,"lo2":-89.0444,"dy":0.0017,"dx":0.0017,"nx":28,"ny":28,"refTime":"2025-08-02T21:00:00:Z","depth":"0","parameterNumber":3,"parameterNumberName":"V-component_of_CURRENTS"},"data":[0,0,0,0,0,0,0,0,0,0,0,0,0,0,0,0,0,0,0,0,0,0,0,0,0,0,0,0,0,0,0,0,0,0,0,0,0,0,0,0,0,0,0,0,0,0,0,0,0,0,0,0,0,0,0,0,0,0,-0.0752,-0.0751,0,-0.0681,-0.068,-0.0679,-0.0597,-0.0596,-0.0595,-0.0594,-0.0479,-0.0477,-0.0475,0,0,0,0,0,0,0,0,0,0,0,0,0,-0.0737,-0.0738,-0.0752,-0.0751,-0.0751,-0.0681,-0.068,-0.0678,-0.0598,-0.0596,-0.0595,-0.0594,-0.048,-0.0477,-0.0475,0,0,0,0,0,0,0,0,0,0,0,0,0,-0.0711,-0.0738,-0.0752,-0.0703,-0.0698,-0.0681,-0.068,-0.0678,-0.0598,-0.0596,-0.0595,-0.0593,-0.0481,-0.0478,-0.0474,-0.0486,0,0,-0.0465,-0.0463,0,0,0,0,0,0,0,0,-0.0712,-0.0711,-0.0711,-0.0707,-0.0701,-0.0648,-0.0632,-0.0612,-0.0598,-0.0634,-0.0594,-0.0593,-0.0534,-0.0526,-0.0514,-0.048,-0.0475,-0.0464,-0.0463,-0.0461,-0.046,0,0,0,0,0,0,0,-0.0715,-0.0713,-0.0722,-0.0711,-0.0705,-0.0657,-0.0652,-0.0628,-0.0591,-0.0631,-0.0625,-0.0621,-0.053,-0.0517,-0.0511,-0.0474,-0.0465,-0.0462,-0.046,-0.0459,-0.0333,-0.0332,0,0,0,0,0,0,-0.0734,-0.0716,-0.0724,-0.072,-0.0705,-0.0659,-0.0654,-0.0665,-0.0592,-0.058,-0.0622,-0.0618,-0.0524,-0.0515,-0.0506,-0.043,-0.0461,-0.0458,-0.0456,-0.0335,-0.0333,-0.0331,0,0,0,0,0,0,-0.0734,-0.0736,-0.0727,-0.0716,-0.0712,-0.0662,-0.0675,-0.0665,-0.065,-0.0587,-0.0573,-0.0619,-0.0522,-0.0511,-0.0474,-0.0428,-0.0457,-0.0454,-0.0336,-0.0334,-0.0332,-0.0333,0,0,0,0,0,0,-0.0734,-0.0737,-0.0755,-0.0719,-0.0714,-0.0723,-0.0676,-0.0664,-0.0651,-0.0644,-0.058,-0.0567,-0.052,-0.0479,-0.047,-0.0425,-0.0451,-0.0338,-0.0335,-0.0333,-0.0335,-0.0331,-0.0328,0,0,0,0,0,-0.0734,-0.0765,-0.0757,-0.0757,-0.074,-0.0724,-0.0718,-0.0674,-0.0653,-0.0654,-0.0599,-0.0569,-0.0454,-0.0476,-0.0467,-0.0418,-0.0339,-0.0336,-0.0333,-0.0336,-0.0332,-0.0328,0,0,0,0,0,0,-0.0768,-0.0759,-0.0749,-0.0776,-0.0756,-0.0711,-0.0712,-0.0686,-0.0646,-0.0637,-0.0573,-0.0557,-0.05,-0.0471,-0.0497,-0.0372,-0.0383,-0.0378,-0.0389,-0.0384,-0.0381,-0.0351,-0.0449,0,0,0,0,0,-0.0788,-0.0803,-0.0784,-0.0802,-0.0801,-0.0761,-0.0751,-0.0723,-0.0684,-0.0665,-0.0615,-0.055,-0.0481,-0.0446,-0.0398,-0.0351,-0.0302,-0.0306,-0.0302,-0.03,-0.0267,-0.0138,-0.012,-0.0321,-0.0321,-0.0321,0,0,-0.0801,-0.0801,-0.0808,-0.081,-0.0792,-0.0769,-0.075,-0.0743,-0.0699,-0.0661,-0.0596,-0.0553,-0.0471,-0.04,-0.0369,-0.0367,-0.0232,-0.0296,-0.0294,-0.0262,-0.0133,-0.0113,-0.0095,-0.0319,-0.0319,-0.0319,0,0,-0.0821,-0.0844,-0.0852,-0.0839,-0.0824,-0.0795,-0.0798,-0.0761,-0.0724,-0.0678,-0.0612,-0.0539,-0.0472,-0.0372,-0.0317,-0.027,-0.0227,-0.0263,-0.0208,-0.0085,-0.0067,-0.005,-0.0029,-0.001,-0.025,-0.025,-0.025,0,-0.0834,-0.0836,-0.0851,-0.0843,-0.0814,-0.0806,-0.0777,-0.0747,-0.0693,-0.0637,-0.0658,-0.048,-0.0436,-0.0276,-0.0256,-0.0256,-0.0219,-0.0235,-0.0079,-0.0061,-0.0043,-0.0025,-0.0004,-0.0249,-0.0249,-0.0249,-0.0249,0,-0.0839,-0.0835,-0.0841,-0.0817,-0.0798,-0.0782,-0.0738,-0.0707,-0.0672,-0.0613,-0.049,-0.0425,-0.03,-0.0279,-0.0255,-0.0094,-0.0124,-0.0102,-0.009,-0.0023,-0.0009,0.0013,-0.0249,-0.0249,-0.0249,-0.0249,0,0,-0.085,-0.0843,-0.0837,-0.0796,-0.0775,-0.0742,-0.069,-0.0601,-0.0516,-0.0478,-0.034,-0.0242,-0.0204,-0.0138,-0.009,0.0012,0.0124,0.0003,0.0009,0.002,0.033,0.0275,0.0292,0.0177,0.0183,0.0187,0.0264,0,-0.0828,-0.0797,-0.0798,-0.0725,-0.0687,-0.0656,-0.0589,-0.0512,-0.0446,-0.0327,-0.0234,-0.0112,-0.0149,-0.0079,0.0016,0.0122,0.0194,0.0097,0.0268,0.0271,0.0216,0.0323,0.0282,0.0348,0.0286,0.029,0.0292,0,-0.0796,-0.0775,-0.0718,-0.0628,-0.0608,-0.0567,-0.0425,-0.0368,-0.0227,-0.017,-0.0052,0.0009,0.0167,0.0118,0.0318,0.0255,0.0291,0.0343,0.0348,0.0329,0.0263,0.0287,0.0391,0.0351,0.0326,0.0324,0.0321,0,-0.0729,-0.0688,-0.0629,-0.0607,-0.0535,-0.0479,-0.0428,-0.0308,-0.0217,-0.006,0.003,0.0184,0.0294,0.0387,0.0443,0.0405,0.0638,0.0606,0.0576,0.0567,0.0588,0.0573,0.0686,0.0751,0.075,0.075,0.075,0,-0.0662,-0.0597,-0.0595,-0.0554,-0.0451,-0.0424,-0.0289,-0.0218,-0.0086,0.0058,0.0117,0.0263,0.0377,0.0497,0.0515,0.0611,0.0694,0.0619,0.0625,0.0574,0.0558,0.0567,0.0544,0.0753,0.0752,0.0752,0.0751,0,-0.055,-0.0566,-0.0484,-0.0436,-0.0415,-0.0333,-0.0227,-0.0118,-0.0029,0.0165,0.0221,0.0377,0.0523,0.0583,0.0748,0.0718,0.0792,0.0799,0.0671,0.0661,0.0577,0.0554,0.0704,0.0739,0.0798,0.0798,0.0797,0,-0.0458,-0.0431,-0.0398,-0.0356,-0.0329,-0.0236,-0.0158,-0.0081,0.0034,0.024,0.0358,0.052,0.0659,0.0816,0.0812,0.0836,0.0814,0.0782,0.0725,0.0606,0.0587,0.0565,0.0583,0.0714,0.0713,0.0712,0.0711,0,-0.0293,-0.0321,-0.0278,-0.0218,-0.0153,-0.0064,0.0041,0.0122,0.0243,0.0384,0.058,0.0691,0.0803,0.0845,0.0835,0.0824,0.0757,0.0765,0.0738,0.0626,0.0527,0.0548,0.0544,0.0705,0.0706,0.0706,0.0706,0.0707,-0.0159,-0.0122,-0.0115,-0.0046,0.0018,0.0115,0.0189,0.0303,0.0459,0.0658,0.0732,0.0895,0.0869,0.0865,0.0822,0.0682,0.0734,0.0636,0.0637,0.064,0.0641,0.0565,0.0675,0.0676,0.0676,0.0677,0.0677,0,0.0005,0.0004,0.007,0.0132,0.0211,0.0211,0.0338,0.0403,0.0565,0.0749,0.0893,0.0965,0.0922,0.0827,0.0639,0.0565,0.0559,0.0534,0.0513,0.0559,0.0579,0.0538,0.0511,0.0511,0.0511,0.0511,0.0511,0.0511,0.0096,0.0157,0.0151,0.0288,0.033,0.0419,0.0471,0.0563,0.0678,0.0849,0.0946,0.1022,0.0934,0.0668,0.0488,0.0457,0.0469,0.0426,0.0491,0.047,0.0479,0.0488,0.0446,0.04,0.04,0.0467,0.0467,0.0468]}],[{"header":{"parameterUnit":"m.s-1","parameterCategory":2,"la1":30.2991,"la2":30.254,"lo1":-89.0895,"lo2":-89.0444,"dy":0.0017,"dx":0.0017,"nx":28,"ny":28,"refTime":"2025-08-02T21:00:00:Z","depth":"2","parameterNumber":2,"parameterNumberName":"U-component_of_CURRENTS"},"data":[0,0,0,0,0,0,0,0,0,0,0,0,0,0,0,0,0,0,0,0,0,0,0,0,0,0,0,0,0,0,0,0,0,0,0,0,0,0,0,0,0,0,0,0,0,0,0,0,0,0,0,0,0,0,0,0,0,0,0.0988,0.0989,0,0.0998,0.0998,0.0998,0.0997,0.0997,0.0997,0.0997,0.1109,0.1112,0.1115,0,0,0,0,0,0,0,0,0,0,0,0,0,0.0994,0.0994,0.0988,0.0989,0.0989,0.0998,0.0998,0.0999,0.0997,0.0997,0.0997,0.0997,0.1108,0.1112,0.1116,0,0,0,0,0,0,0,0,0,0,0,0,0,0.0996,0.0994,0.0988,0.099,0.099,0.0998,0.0998,0.0999,0.0997,0.0997,0.0997,0.0997,0.1107,0.1111,0.1116,0.1148,0,0,0.113,0.1132,0,0,0,0,0,0,0,0,0.0996,0.0996,0.0989,0.099,0.099,0.0997,0.1042,0.1054,0.0997,0.0994,0.0997,0.0997,0.1082,0.1088,0.1088,0.1154,0.1158,0.1131,0.1134,0.1136,0.1137,0,0,0,0,0,0,0,0.0996,0.0995,0.0992,0.0989,0.099,0.0999,0.0998,0.1044,0.104,0.0994,0.0994,0.0996,0.1082,0.1084,0.1091,0.116,0.1131,0.1135,0.1138,0.1139,0.1444,0.1449,0,0,0,0,0,0,0.0994,0.0995,0.0992,0.0992,0.0993,0.0999,0.0998,0.0994,0.1037,0.1043,0.0996,0.0996,0.1076,0.1086,0.1095,0.1255,0.1135,0.114,0.1143,0.1438,0.1445,0.145,0,0,0,0,0,0,0.0994,0.0994,0.0991,0.0995,0.0995,0.0998,0.0994,0.0995,0.1018,0.1038,0.1046,0.1022,0.1076,0.1089,0.1184,0.1255,0.1142,0.1146,0.1432,0.144,0.1448,0.1499,0,0,0,0,0,0,0.0994,0.0993,0.1002,0.0994,0.0995,0.1051,0.0994,0.0995,0.1018,0.1019,0.1062,0.1071,0.1077,0.1178,0.1189,0.1259,0.115,0.1425,0.1436,0.1445,0.149,0.1507,0.1522,0,0,0,0,0,0.0994,0.1031,0.1002,0.1003,0.1002,0.1054,0.1058,0.1058,0.102,0.1069,0.109,0.107,0.125,0.1185,0.1197,0.127,0.1421,0.1433,0.1444,0.1483,0.1504,0.1521,0,0,0,0,0,0,0.1077,0.1033,0.1002,0.1032,0.1057,0.1056,0.1095,0.1074,0.1121,0.1121,0.1119,0.1133,0.1252,0.1267,0.1195,0.1399,0.1341,0.1356,0.1366,0.1386,0.1402,0.1374,0.1154,0,0,0,0,0,0.1084,0.1083,0.1067,0.1103,0.1109,0.1096,0.1114,0.1113,0.1142,0.116,0.1185,0.1236,0.1308,0.1348,0.1417,0.1509,0.1527,0.1578,0.1594,0.1607,0.1601,0.175,0.1777,0.149,0.1489,0.1489,0,0,0.1129,0.1106,0.1108,0.1117,0.1124,0.1153,0.111,0.116,0.1191,0.1169,0.1244,0.1294,0.1351,0.1465,0.152,0.1483,0.169,0.1622,0.1631,0.1619,0.1765,0.1792,0.1816,0.1498,0.1496,0.1495,0,0,0.1217,0.1195,0.1213,0.1227,0.124,0.1233,0.1251,0.1265,0.1284,0.1358,0.1361,0.145,0.1544,0.1599,0.1635,0.1786,0.1775,0.1828,0.1871,0.2017,0.204,0.206,0.2062,0.2082,0.1828,0.1828,0.1828,0,0.1268,0.1269,0.1246,0.127,0.1279,0.1267,0.1302,0.1332,0.1382,0.1405,0.1407,0.1563,0.1608,0.1729,0.1783,0.1816,0.1854,0.1777,0.2031,0.2053,0.2073,0.207,0.2092,0.1832,0.1832,0.1831,0.1831,0,0.1346,0.1355,0.1386,0.1377,0.1404,0.1449,0.1457,0.1504,0.151,0.1524,0.1653,0.1726,0.181,0.1861,0.1858,0.2033,0.1994,0.2033,0.1962,0.2104,0.2092,0.2114,0.1838,0.1836,0.1835,0.1834,0,0,0.1424,0.1426,0.1434,0.1429,0.145,0.1478,0.1543,0.1587,0.1618,0.1704,0.1767,0.1907,0.1929,0.1975,0.2013,0.2127,0.2279,0.2138,0.2144,0.2098,0.2515,0.2225,0.2219,0.2379,0.2385,0.239,0.2425,0,0.1482,0.1522,0.151,0.1562,0.1578,0.1578,0.1632,0.1677,0.172,0.1793,0.1877,0.1974,0.1979,0.2034,0.2155,0.2263,0.2351,0.2259,0.2419,0.2421,0.2116,0.2242,0.2137,0.2139,0.2446,0.2449,0.2452,0,0.1541,0.1548,0.1598,0.1606,0.1614,0.1652,0.17,0.175,0.184,0.1879,0.1979,0.2034,0.2183,0.2193,0.2421,0.2369,0.2444,0.2514,0.2519,0.2244,0.2174,0.2067,0.2167,0.2488,0.2485,0.2482,0.248,0,0.1575,0.1604,0.1633,0.1641,0.1666,0.1695,0.1716,0.1785,0.1828,0.1943,0.1989,0.2152,0.2238,0.2412,0.2485,0.2507,0.2698,0.2753,0.2543,0.2519,0.2451,0.2409,0.2936,0.2936,0.2936,0.2936,0.2936,0,0.1618,0.1645,0.1651,0.1668,0.1712,0.1718,0.1783,0.1825,0.1899,0.1984,0.2041,0.2147,0.2319,0.2414,0.2516,0.2531,0.2726,0.2545,0.2537,0.2455,0.2415,0.2748,0.2726,0.2937,0.2937,0.2936,0.2936,0,0.1673,0.167,0.1704,0.1722,0.1734,0.1771,0.1811,0.1881,0.1911,0.203,0.2074,0.2178,0.2296,0.235,0.2576,0.2515,0.26,0.2554,0.2335,0.2297,0.2315,0.2296,0.2375,0.2365,0.2358,0.2351,0.2345,0,0.1719,0.174,0.1755,0.1803,0.1821,0.186,0.1921,0.1918,0.1964,0.2075,0.214,0.2224,0.2279,0.2316,0.2289,0.2288,0.2428,0.2103,0.2128,0.2287,0.2273,0.2266,0.2258,0.2064,0.2056,0.205,0.2045,0,0.1808,0.1807,0.1823,0.1892,0.195,0.1984,0.2026,0.2041,0.2075,0.2095,0.2159,0.22,0.2192,0.2094,0.1944,0.1967,0.2083,0.1966,0.2319,0.2155,0.198,0.1968,0.1976,0.1992,0.1997,0.2001,0.2004,0.2006,0.1883,0.1925,0.1939,0.198,0.2045,0.2079,0.2035,0.206,0.2032,0.1975,0.2095,0.2008,0.1996,0.1696,0.1645,0.1558,0.1718,0.167,0.1699,0.1732,0.1623,0.1438,0.1321,0.1323,0.1324,0.1325,0.1326,0,0.1953,0.1998,0.2056,0.2051,0.2057,0.2087,0.2084,0.1969,0.1862,0.1862,0.1781,0.1565,0.1456,0.1457,0.1257,0.1165,0.128,0.1117,0.132,0.1371,0.1418,0.1303,0.0912,0.091,0.0909,0.0907,0,0,0.2013,0.2042,0.2026,0.2001,0.202,0.1928,0.1879,0.1727,0.162,0.1436,0.1317,0.1328,0.1393,0.1122,0.1079,0.0978,0.1179,0.0937,0.1276,0.1569,0.1614,0.1738,0.1615,0,0,0,0,0]},{"header":{"parameterUnit":"m.s-1","parameterCategory":2,"la1":30.2991,"la2":30.254,"lo1":-89.0895,"lo2":-89.0444,"dy":0.0017,"dx":0.0017,"nx":28,"ny":28,"refTime":"2025-08-02T21:00:00:Z","depth":"2","parameterNumber":3,"parameterNumberName":"V-component_of_CURRENTS"},"data":[0,0,0,0,0,0,0,0,0,0,0,0,0,0,0,0,0,0,0,0,0,0,0,0,0,0,0,0,0,0,0,0,0,0,0,0,0,0,0,0,0,0,0,0,0,0,0,0,0,0,0,0,0,0,0,0,0,0,0.0085,0.0085,0,0.0144,0.0145,0.0146,0.0131,0.0129,0.0127,0.0126,0.0123,0.0124,0.0125,0,0,0,0,0,0,0,0,0,0,0,0,0,0.0047,0.0048,0.0085,0.0085,0.0085,0.0144,0.0145,0.0147,0.0131,0.0129,0.0127,0.0125,0.0122,0.0124,0.0126,0,0,0,0,0,0,0,0,0,0,0,0,0,0.0086,0.0048,0.0084,0.0081,0.008,0.0144,0.0145,0.0147,0.0131,0.0129,0.0126,0.0124,0.0121,0.0124,0.0126,0.0189,0,0,0.0132,0.0133,0,0,0,0,0,0,0,0,0.0083,0.0088,0.0081,0.0081,0.0081,0.0123,0.0131,0.0156,0.0132,0.0118,0.0126,0.0123,0.0115,0.0118,0.0143,0.0189,0.0189,0.0133,0.0134,0.0135,0.0136,0,0,0,0,0,0,0,0.0081,0.0085,0.0113,0.0081,0.0081,0.0106,0.0109,0.0137,0.0132,0.0119,0.0116,0.0116,0.0115,0.0141,0.0142,0.0189,0.0133,0.0135,0.0136,0.0137,0.0252,0.0254,0,0,0,0,0,0,0.0061,0.0083,0.0111,0.0115,0.007,0.0108,0.0111,0.0116,0.0134,0.0133,0.0118,0.0114,0.0138,0.014,0.0142,0.0185,0.0135,0.0137,0.0138,0.0251,0.0253,0.0255,0,0,0,0,0,0,0.006,0.0064,0.0109,0.0095,0.0102,0.011,0.0117,0.0118,0.0116,0.0132,0.0131,0.0108,0.0137,0.0139,0.0166,0.0185,0.0138,0.014,0.0249,0.0251,0.0254,0.0291,0,0,0,0,0,0,0.0059,0.0063,0.0061,0.0094,0.0102,0.0141,0.0119,0.0121,0.0118,0.0114,0.0125,0.0124,0.0135,0.0163,0.0168,0.0187,0.0142,0.0246,0.025,0.0253,0.0287,0.0294,0.03,0,0,0,0,0,0.0058,0.0068,0.0061,0.0063,0.0098,0.0141,0.0149,0.015,0.0119,0.0135,0.0142,0.0122,0.0187,0.0167,0.0172,0.0192,0.0245,0.0249,0.0253,0.0284,0.0293,0.03,0,0,0,0,0,0,0.0043,0.0068,0.006,0.0073,0.0099,0.0136,0.0145,0.0141,0.0162,0.0142,0.015,0.0153,0.0182,0.0188,0.0165,0.0237,0.0211,0.0216,0.0233,0.0241,0.0247,0.026,0.0143,0,0,0,0,0,0.004,0.0055,0.0081,0.0089,0.0098,0.0116,0.0128,0.0128,0.0149,0.0153,0.0159,0.0174,0.0213,0.0223,0.025,0.0293,0.0303,0.0309,0.0316,0.0321,0.0337,0.0408,0.0422,0.0268,0.0268,0.0267,0,0,0.0034,0.0048,0.0055,0.0087,0.0102,0.0142,0.0118,0.0132,0.0165,0.0151,0.0183,0.0192,0.0229,0.0279,0.0292,0.0279,0.036,0.0326,0.033,0.0344,0.0413,0.0428,0.0442,0.027,0.027,0.0269,0,0,0.0051,0.0043,0.0071,0.0097,0.0116,0.0139,0.0135,0.0161,0.0168,0.0204,0.021,0.0239,0.0272,0.0324,0.0351,0.0414,0.0391,0.0402,0.0449,0.0516,0.053,0.0542,0.0526,0.0537,0.0408,0.0408,0.0408,0,0.004,0.0081,0.0086,0.0124,0.0147,0.0135,0.0178,0.0202,0.023,0.0257,0.0209,0.0302,0.0308,0.0418,0.0427,0.043,0.0432,0.0412,0.0525,0.0537,0.0549,0.0531,0.0542,0.041,0.041,0.041,0.0409,0,0.0097,0.012,0.0136,0.0185,0.0214,0.0242,0.0273,0.0293,0.0278,0.0307,0.037,0.0393,0.0451,0.0454,0.0452,0.055,0.0508,0.0521,0.0502,0.0567,0.0543,0.0553,0.0413,0.0413,0.0412,0.0411,0,0,0.0087,0.0164,0.0165,0.0199,0.0245,0.0276,0.0331,0.04,0.0448,0.0451,0.0537,0.0572,0.0561,0.0593,0.06,0.0647,0.0695,0.0607,0.061,0.0585,0.0783,0.0658,0.0657,0.0726,0.0729,0.0732,0.0714,0,0.0126,0.0211,0.0242,0.0313,0.0358,0.0379,0.0444,0.0495,0.0526,0.0603,0.0632,0.0697,0.0625,0.0647,0.0687,0.0718,0.0734,0.0695,0.073,0.073,0.0609,0.0671,0.0618,0.0592,0.0725,0.0727,0.0728,0,0.0167,0.0224,0.0303,0.039,0.0411,0.0443,0.0538,0.0596,0.0701,0.0724,0.0786,0.0815,0.0889,0.0815,0.0872,0.0846,0.0806,0.0804,0.0805,0.0691,0.0629,0.0561,0.0607,0.0746,0.0744,0.0743,0.0742,0,0.0159,0.0257,0.032,0.0348,0.0451,0.0476,0.0518,0.0614,0.0684,0.0797,0.0855,0.0943,0.0987,0.0991,0.0936,0.0919,0.0982,0.097,0.0812,0.08,0.0765,0.0744,0.1004,0.1004,0.1004,0.1004,0.1004,0,0.0189,0.0229,0.0308,0.034,0.0404,0.0469,0.0547,0.0601,0.073,0.0827,0.0894,0.0976,0.1035,0.107,0.1002,0.0921,0.1023,0.0829,0.081,0.0767,0.0748,0.0901,0.0889,0.1003,0.1004,0.1004,0.1004,0,0.015,0.0216,0.0278,0.0372,0.0391,0.0419,0.0521,0.0605,0.0703,0.084,0.088,0.1028,0.1051,0.1061,0.1083,0.0991,0.0942,0.0875,0.0768,0.0737,0.0691,0.0682,0.0729,0.0725,0.0722,0.0719,0.0717,0,0.0134,0.0167,0.0253,0.028,0.0302,0.0362,0.0422,0.0548,0.0667,0.0844,0.0936,0.1015,0.1064,0.103,0.0914,0.0795,0.0842,0.0659,0.0627,0.0697,0.0675,0.0671,0.0666,0.0578,0.0575,0.0572,0.057,0,0.0098,0.0117,0.0176,0.0262,0.0306,0.0388,0.0491,0.0575,0.0755,0.0867,0.1014,0.1057,0.0995,0.0893,0.0729,0.0636,0.0682,0.0593,0.077,0.0635,0.0549,0.0527,0.053,0.0546,0.0548,0.055,0.0551,0.0552,0.0045,0.0071,0.0183,0.0275,0.0336,0.0457,0.0508,0.0658,0.0826,0.0986,0.1023,0.1037,0.0943,0.0694,0.0562,0.042,0.0446,0.041,0.0423,0.0438,0.0403,0.0314,0.0256,0.0256,0.0257,0.0258,0.0258,0,0.0044,0.0115,0.0202,0.0338,0.0431,0.0472,0.0616,0.068,0.0834,0.0924,0.0996,0.0854,0.0733,0.0617,0.0345,0.0209,0.0244,0.0197,0.0284,0.0305,0.0325,0.0291,0.0111,0.0111,0.0111,0.011,0,0,0.0053,0.0177,0.0283,0.0469,0.0516,0.0613,0.067,0.0735,0.0811,0.0859,0.0852,0.086,0.0723,0.0524,0.0361,0.0225,0.0299,0.0198,0.0316,0.0454,0.0476,0.0431,0.0397,0,0,0,0,0]}],[{"header":{"parameterUnit":"m.s-1","parameterCategory":2,"la1":30.2991,"la2":30.254,"lo1":-89.0895,"lo2":-89.0444,"dy":0.0017,"dx":0.0017,"nx":28,"ny":28,"refTime":"2025-08-02T21:00:00:Z","depth":"4","parameterNumber":2,"parameterNumberName":"U-component_of_CURRENTS"},"data":[0,0,0,0,0,0,0,0,0,0,0,0,0,0,0,0,0,0,0,0,0,0,0,0,0,0,0,0,0,0,0,0,0,0,0,0,0,0,0,0,0,0,0,0,0,0,0,0,0,0,0,0,0,0,0,0,0,0,-0.0193,-0.0193,0,-0.0189,-0.0189,-0.0189,-0.0202,-0.0202,-0.0202,-0.0202,-0.0316,-0.0319,-0.0321,0,0,0,0,0,0,0,0,0,0,0,0,0,-0.0199,-0.0199,-0.0193,-0.0193,-0.0193,-0.0189,-0.0189,-0.0189,-0.0202,-0.0202,-0.0202,-0.0203,-0.0315,-0.0318,-0.0322,0,0,0,0,0,0,0,0,0,0,0,0,0,-0.0197,-0.0199,-0.0193,-0.0198,-0.0198,-0.0189,-0.0189,-0.0189,-0.0202,-0.0202,-0.0202,-0.0203,-0.0314,-0.0318,-0.0322,-0.034,0,0,-0.0335,-0.0337,0,0,0,0,0,0,0,0,-0.0197,-0.0197,-0.0197,-0.0197,-0.0197,-0.0195,-0.0233,-0.0245,-0.0202,-0.0202,-0.0202,-0.0203,-0.0285,-0.0292,-0.029,-0.0346,-0.035,-0.0335,-0.0338,-0.034,-0.0341,0,0,0,0,0,0,0,-0.0198,-0.0197,-0.0193,-0.0197,-0.0197,-0.0195,-0.0196,-0.0235,-0.0245,-0.0202,-0.0202,-0.0199,-0.0286,-0.0286,-0.0294,-0.0352,-0.0335,-0.0339,-0.0341,-0.0343,-0.0307,-0.0304,0,0,0,0,0,0,-0.0195,-0.0198,-0.0193,-0.0193,-0.0197,-0.0195,-0.0195,-0.0197,-0.0242,-0.0248,-0.0199,-0.02,-0.0279,-0.0289,-0.0298,-0.0219,-0.034,-0.0343,-0.0346,-0.031,-0.0306,-0.0303,0,0,0,0,0,0,-0.0196,-0.0195,-0.0193,-0.0194,-0.0193,-0.0194,-0.0196,-0.0196,-0.019,-0.0238,-0.0247,-0.0191,-0.028,-0.0292,-0.0321,-0.0228,-0.0345,-0.0349,-0.0315,-0.0309,-0.0304,-0.0128,0,0,0,0,0,0,-0.0196,-0.0195,-0.02,-0.0194,-0.0193,-0.0184,-0.0195,-0.0196,-0.0187,-0.0188,-0.0235,-0.0246,-0.0281,-0.0314,-0.0325,-0.0236,-0.0352,-0.0319,-0.0312,-0.0306,-0.0139,-0.0118,-0.01,0,0,0,0,0,-0.0196,-0.02,-0.0201,-0.02,-0.0198,-0.0183,-0.0182,-0.0185,-0.0187,-0.0182,-0.0208,-0.0244,-0.0278,-0.0317,-0.033,-0.0239,-0.0322,-0.0314,-0.0307,-0.0147,-0.0122,-0.0101,0,0,0,0,0,0,-0.0209,-0.0201,-0.0202,-0.0205,-0.0192,-0.0185,-0.0186,-0.0178,-0.0191,-0.0201,-0.0239,-0.0251,-0.0227,-0.0269,-0.031,-0.0205,-0.029,-0.0285,-0.0164,-0.0141,-0.0122,-0.0111,-0.0356,0,0,0,0,0,-0.0212,-0.0214,-0.02,-0.0203,-0.0197,-0.0187,-0.0183,-0.0181,-0.0188,-0.0193,-0.0209,-0.0219,-0.0203,-0.0207,-0.0221,-0.0196,-0.0289,-0.0132,-0.0112,-0.0096,-0.0092,-0.0164,-0.0152,-0.0277,-0.0277,-0.0277,0,0,-0.0218,-0.0215,-0.0216,-0.0206,-0.0201,-0.0173,-0.0186,-0.0178,-0.0137,-0.0208,-0.017,-0.0173,-0.0186,-0.0135,-0.0124,-0.0162,-0.011,-0.0086,-0.0072,-0.0078,-0.0155,-0.0144,-0.0134,-0.0272,-0.0273,-0.0273,0,0,-0.0222,-0.0226,-0.0223,-0.0208,-0.0195,-0.0175,-0.0166,-0.0145,-0.012,-0.0082,-0.0097,-0.0061,-0.0049,-0.0026,-0.0012,0.0096,-0.0013,0.0123,0.0235,0.0167,0.0175,0.0181,0.0064,0.0059,0.0142,0.0143,0.0143,0,-0.0228,-0.0217,-0.0219,-0.0203,-0.0175,-0.0166,-0.0131,-0.0102,-0.0084,-0.0045,-0.0051,0.0026,0.0015,0.0097,0.017,0.0141,0.006,0.0148,0.0188,0.0193,0.0196,0.0074,0.0066,0.0152,0.0151,0.015,0.0149,0,-0.0218,-0.0205,-0.02,-0.0166,-0.0136,-0.0111,-0.006,-0.0017,0.0035,0.0078,0.0169,0.017,0.0223,0.0264,0.0262,0.0328,0.0246,0.0209,0.0122,0.0218,0.0085,0.0073,0.0166,0.0162,0.016,0.0157,0,0,-0.0226,-0.0197,-0.0191,-0.0158,-0.0109,-0.0075,0.0006,0.0097,0.0161,0.0224,0.031,0.0412,0.0426,0.0443,0.0449,0.043,0.0405,0.0362,0.0353,0.0232,0.0214,0.0335,0.0331,0.0373,0.0372,0.0372,0.0103,0,-0.0208,-0.0168,-0.0146,-0.0074,-0.0036,0.0018,0.0102,0.0183,0.0256,0.0331,0.0392,0.0461,0.0491,0.0531,0.0529,0.0433,0.0385,0.0478,0.015,0.0139,0.0225,0.0328,0.037,0.0094,0.0091,0.0088,0.0087,0,-0.0189,-0.0159,-0.0093,-0.0003,0.0022,0.0086,0.0227,0.0296,0.0401,0.045,0.0535,0.0556,0.0605,0.0582,0.0469,0.0527,0.0398,0.0303,0.0289,0.0334,0.0243,-0.0019,0.0063,0.0065,0.0066,0.0068,0.007,0,-0.0173,-0.0109,-0.0046,-0.002,0.0079,0.0156,0.0236,0.0353,0.0415,0.0516,0.0542,0.0601,0.0601,0.0501,0.0372,0.0413,0.0161,0.0167,0.0131,0.0131,0.0011,0.0006,0.0036,0.0036,0.0037,0.0037,0.0038,0,-0.0147,-0.01,-0.0026,0.001,0.0117,0.0191,0.0315,0.0391,0.0481,0.0549,0.0602,0.063,0.0582,0.0461,0.034,0.0209,0.0121,0.0167,0.0101,0.009,0.0099,-0.0001,-0.0002,0.0027,0.003,0.0032,0.0033,0,-0.0146,-0.0106,-0.0039,0.0072,0.0122,0.0204,0.0343,0.0409,0.0492,0.0563,0.0593,0.0618,0.0554,0.0422,0.0219,0.0167,0.0006,-0.006,-0.011,-0.0181,0.0023,0.0034,-0.0054,-0.0051,-0.0049,-0.0047,-0.0046,0,-0.0144,-0.011,-0.0011,0.0042,0.0102,0.0228,0.0303,0.0412,0.0464,0.0561,0.0567,0.0563,0.0578,0.0335,0.0239,0.0014,-0.0005,-0.0145,0.0052,0.0085,0.0026,0.0034,0.0043,-0.0042,-0.0041,-0.0041,-0.004,0,-0.015,-0.0122,-0.0076,0.0034,0.012,0.0226,0.0344,0.037,0.049,0.0523,0.0582,0.0584,0.0507,0.0425,0.0226,0.0065,-0.0044,-0.012,-0.0123,0.0062,0.0098,0.004,0.0045,-0.0032,-0.0033,-0.0034,-0.0034,0,-0.0163,-0.015,-0.0086,0.0047,0.0129,0.0245,0.0299,0.0389,0.0455,0.0553,0.0562,0.0547,0.0545,0.0442,0.0251,0.0152,0.0198,0.0143,0.0127,0.0117,0.0312,0.0392,0.0316,0,0,0,0,0,-0.0164,-0.0126,-0.0056,0.007,0.0153,0.0242,0.0338,0.0378,0.0448,0.0494,0.0557,0.0521,0.0472,0.0426,0.0362,0.0318,0.0151,0.0239,0.007,0.0013,0.0003,0.0225,0,0,0,0,0,0,-0.0178,-0.0139,-0.0071,0.0097,0.0193,0.0294,0.0364,0.0409,0.0443,0.0502,0.0455,0.0507,0.0414,0.0513,0.0363,0.0343,0.0228,0.0217,0.0216,0.0018,0.001,0.0002,0.0227,0,0,0,0,0]},{"header":{"parameterUnit":"m.s-1","parameterCategory":2,"la1":30.2991,"la2":30.254,"lo1":-89.0895,"lo2":-89.0444,"dy":0.0017,"dx":0.0017,"nx":28,"ny":28,"refTime":"2025-08-02T21:00:00:Z","depth":"4","parameterNumber":3,"parameterNumberName":"V-component_of_CURRENTS"},"data":[0,0,0,0,0,0,0,0,0,0,0,0,0,0,0,0,0,0,0,0,0,0,0,0,0,0,0,0,0,0,0,0,0,0,0,0,0,0,0,0,0,0,0,0,0,0,0,0,0,0,0,0,0,0,0,0,0,0,0.0467,0.0467,0,0.0471,0.0471,0.0472,0.0472,0.0472,0.0472,0.0472,0.056,0.0563,0.0565,0,0,0,0,0,0,0,0,0,0,0,0,0,0.0447,0.0448,0.0467,0.0467,0.0467,0.0471,0.0471,0.0472,0.0472,0.0472,0.0472,0.0472,0.056,0.0562,0.0565,0,0,0,0,0,0,0,0,0,0,0,0,0,0.0454,0.0448,0.0467,0.0468,0.0468,0.0471,0.0471,0.0472,0.0472,0.0472,0.0472,0.0471,0.0559,0.0562,0.0566,0.059,0,0,0.0577,0.0578,0,0,0,0,0,0,0,0,0.0454,0.0455,0.0468,0.0468,0.0468,0.0471,0.0497,0.0515,0.0472,0.047,0.0472,0.0471,0.0538,0.0544,0.0544,0.0594,0.0598,0.0577,0.0579,0.0581,0.0582,0,0,0,0,0,0,0,0.0453,0.0455,0.0469,0.0468,0.0468,0.0464,0.0465,0.05,0.0507,0.0471,0.0471,0.0471,0.0539,0.054,0.0546,0.06,0.0577,0.058,0.0583,0.0584,0.0639,0.0638,0,0,0,0,0,0,0.0453,0.0454,0.0469,0.0469,0.046,0.0464,0.0465,0.047,0.0504,0.0509,0.0471,0.0471,0.0534,0.0542,0.0549,0.0565,0.0581,0.0584,0.0586,0.0639,0.0639,0.0638,0,0,0,0,0,0,0.0453,0.0455,0.0469,0.0461,0.0463,0.0465,0.047,0.047,0.0481,0.0504,0.051,0.0483,0.0534,0.0544,0.0574,0.0569,0.0586,0.0589,0.064,0.0639,0.0638,0.0607,0,0,0,0,0,0,0.0452,0.0455,0.0462,0.0462,0.0463,0.0472,0.047,0.047,0.0481,0.0481,0.0516,0.0523,0.0535,0.0568,0.0577,0.0574,0.0592,0.0641,0.064,0.0639,0.0609,0.0605,0.0601,0,0,0,0,0,0.0452,0.0459,0.0462,0.0464,0.0472,0.0472,0.0473,0.0474,0.0481,0.0484,0.0501,0.0522,0.0565,0.0571,0.0582,0.058,0.0642,0.064,0.0639,0.061,0.0606,0.0601,0,0,0,0,0,0,0.0454,0.0459,0.0463,0.0472,0.0473,0.0472,0.0478,0.0482,0.0497,0.0503,0.0526,0.0534,0.0553,0.0572,0.0577,0.0588,0.0603,0.0603,0.0578,0.0573,0.057,0.0567,0.0595,0,0,0,0,0,0.0458,0.0467,0.0468,0.0477,0.0479,0.0483,0.0486,0.0487,0.0497,0.0503,0.0529,0.0547,0.0553,0.0569,0.0583,0.0605,0.058,0.0605,0.0602,0.0598,0.0602,0.0502,0.0488,0.0632,0.0632,0.0632,0,0,0.0462,0.0467,0.0472,0.0478,0.0482,0.0487,0.0485,0.0492,0.0493,0.0514,0.0537,0.0545,0.0555,0.0562,0.0572,0.0581,0.0553,0.0596,0.0594,0.0599,0.0498,0.0484,0.0471,0.0631,0.0631,0.0632,0,0,0.0469,0.048,0.0486,0.0488,0.0493,0.0496,0.0502,0.051,0.0509,0.0538,0.0528,0.0516,0.0579,0.054,0.0539,0.0525,0.0534,0.0552,0.0539,0.0441,0.0428,0.0416,0.04,0.0386,0.0552,0.0552,0.0552,0,0.0472,0.0482,0.0487,0.0491,0.0494,0.0504,0.0508,0.0508,0.0525,0.0515,0.055,0.0546,0.0554,0.0504,0.0504,0.0514,0.0499,0.0556,0.0434,0.0421,0.0409,0.0395,0.0381,0.055,0.055,0.055,0.0551,0,0.0476,0.0489,0.0494,0.0504,0.0508,0.0515,0.0514,0.0519,0.0542,0.0536,0.0517,0.0509,0.051,0.0495,0.0514,0.0431,0.0464,0.0436,0.0441,0.0392,0.0382,0.0367,0.0548,0.0548,0.0549,0.0549,0,0,0.0472,0.0493,0.0497,0.0499,0.0515,0.0514,0.0517,0.0505,0.0494,0.0507,0.0476,0.0467,0.0471,0.0467,0.0453,0.0368,0.0284,0.039,0.0385,0.0371,0.0137,0.0168,0.0156,0.0238,0.0235,0.0232,0.0176,0,0.0475,0.0486,0.0497,0.0508,0.051,0.0515,0.0524,0.0511,0.0507,0.0483,0.0434,0.0436,0.0457,0.0471,0.0382,0.0292,0.0242,0.0307,0.0191,0.0189,0.0216,0.0136,0.0221,0.0165,0.0162,0.0159,0.0158,0,0.0474,0.048,0.0502,0.0505,0.0509,0.0548,0.0537,0.0542,0.0499,0.0486,0.0451,0.0439,0.035,0.0376,0.0206,0.0258,0.0226,0.0153,0.0148,0.0175,0.019,0.0216,0.0131,0.0133,0.0135,0.0137,0.0139,0,0.0459,0.0476,0.0499,0.0504,0.0523,0.0558,0.0594,0.0576,0.0566,0.0519,0.0489,0.0394,0.0361,0.0253,0.0172,0.0194,-0.0028,-0.003,-0.0029,-0.0023,-0.0016,-0.0003,-0.0135,-0.0135,-0.0135,-0.0135,-0.0135,0,0.0443,0.0456,0.0522,0.0533,0.0583,0.0603,0.066,0.064,0.0624,0.0589,0.0535,0.0458,0.0328,0.0208,0.0138,0.0011,-0.0044,-0.0041,-0.0062,-0.0019,-0.0007,-0.0024,-0.001,-0.0137,-0.0137,-0.0136,-0.0136,0,0.0424,0.0457,0.0492,0.0554,0.059,0.0652,0.0751,0.0746,0.0736,0.0676,0.0674,0.0503,0.0339,0.0211,0.0014,-0.0022,-0.0156,-0.0163,-0.0065,-0.0077,-0.0062,-0.0049,-0.0186,-0.0186,-0.0186,-0.0186,-0.0186,0,0.0403,0.0426,0.0532,0.0594,0.0657,0.0766,0.0815,0.0824,0.0793,0.0688,0.0607,0.0475,0.0365,0.0096,-0.0033,-0.0172,-0.0168,-0.0187,-0.016,-0.0074,-0.008,-0.0067,-0.0054,-0.0186,-0.0186,-0.0186,-0.0186,0,0.0365,0.0443,0.0489,0.0629,0.0717,0.0775,0.0845,0.0826,0.0788,0.075,0.0575,0.0468,0.0265,0.0083,-0.0005,-0.011,-0.0175,-0.0187,-0.0187,-0.0161,-0.0075,-0.0078,-0.0066,-0.0186,-0.0186,-0.0186,-0.0186,0,0.0371,0.0412,0.0517,0.0647,0.0727,0.0759,0.0812,0.0778,0.0751,0.0627,0.0568,0.0383,0.0282,0.0113,-0.0001,-0.0082,-0.0089,-0.0074,-0.008,-0.0081,-0.0034,0.0092,-0.0005,0,0,0,0,0,0.037,0.0425,0.0521,0.0624,0.0702,0.0749,0.0777,0.0799,0.0749,0.0633,0.0621,0.0449,0.0273,0.0146,0.0069,-0.0,-0.0105,-0.0088,-0.009,-0.0186,-0.0186,-0.0147,0,0,0,0,0,0,0.0359,0.0451,0.0502,0.0581,0.0646,0.0682,0.0704,0.0685,0.0623,0.0584,0.0464,0.045,0.024,0.0306,0.0063,0.0033,0.0033,-0.0177,-0.0177,-0.0186,-0.0186,-0.0186,-0.0146,0,0,0,0,0]}]]